This demonstration page uses our WeatherBlox Daily Observations layout. Learn more.

Left ArrowRight Arrow

38.89511, -77.03637

Hourly Observations for July 26, 2018

Temp ( °F °C ) Dew Point ( °F °C ) Humidity (%) Winds ( mph kmh ) Pressure ( in mb ) Visibility ( mi km ) Precip ( " mm )
12:22 am 00:22 Cloudy 74 23.3 70 21.1 88 88 S 5 7 29.88 1012 10 16 0.00 0.00
12:52 am 00:52 Cloudy 74 23.3 71 21.7 91 91 SSW 3 6 29.88 1012 10 16 0.00 0.00
1:15 am 01:15 Cloudy 74 23.3 71 21.7 91 91 WSW 3 6 29.88 1012 10 16 0.00 0.00
1:48 am 01:48 Cloudy 73 23 72 22 94 94 WSW 5 7 29.88 1012 10 16 0.00 0.00
1:52 am 01:52 Cloudy 74 23.3 71 21.7 91 91 W 6 9 29.88 1012 10 16 0.00 0.00
2:03 am 02:03 Cloudy 74 23.3 71 21.7 91 91 W 5 7 29.88 1012 10 16 0.00 0.00
2:13 am 02:13 Cloudy 74 23.3 71 21.7 91 91 W 6 9 29.85 1011 10 16 0.00 0.00
2:52 am 02:52 Cloudy 74 23.3 70 21.1 88 88 W 7 11 29.87 1011 10 16 0.00 0.00
3:07 am 03:07 Cloudy 74 23.3 71 21.7 91 91 VRB 3 6 29.88 1012 10 16 0.00 0.00
3:34 am 03:34 Mostly Cloudy 74 23.3 70 21.1 88 88 WNW 3 6 29.88 1012 10 16 0.00 0.00
3:45 am 03:45 Mostly Cloudy 74 23.3 71 21.7 91 91 Calm 29.88 1012 10 16 0.00 0.00
3:52 am 03:52 Cloudy 74 23.3 71 21.7 91 91 Calm 29.87 1012 10 16 0.00 0.00
4:13 am 04:13 Cloudy 74 23.3 70 21.1 88 88 Calm 29.88 1012 10 16 0.00 0.00
4:43 am 04:43 Cloudy 74 23.3 70 21.1 88 88 Calm 29.88 1012 10 16 0.00 0.00
4:52 am 04:52 Cloudy 74 23.3 70 21.1 88 88 Calm 29.87 1012 10 16 0.00 0.00
4:59 am 04:59 Cloudy 73 22.8 70 21.1 90 90 Calm 29.88 1012 10 16 0.00 0.00
5:08 am 05:08 Cloudy 74 23.3 70 21.1 88 88 Calm 29.88 1012 10 16 0.00 0.00
5:20 am 05:20 Cloudy 74 23.3 70 21.1 88 88 Calm 29.88 1012 10 16 0.00 0.00
5:52 am 05:52 Cloudy 74 23.3 69 20.6 85 85 WNW 6 9 29.88 1012 10 16 0.00 0.00
6:52 am 06:52 Mostly Cloudy 73 22.8 70 21.1 90 90 SSW 3 6 29.91 1013 10 16 0.00 0.00
7:52 am 07:52 Mostly Cloudy 75 23.9 70 21.1 84 84 S 5 7 29.91 1013 10 16 0.00 0.00
8:52 am 08:52 Mostly Cloudy 77 25 70 21.1 79 79 WNW 5 7 29.92 1013 10 16 0.00 0.00
9:40 am 09:40 Mostly Cloudy 78 25.6 70 21.1 76 76 W 6 9 29.94 1014 10 16 0.00 0.00
9:52 am 09:52 Mostly Cloudy 80 26.7 70 21.1 71 71 W 7 11 29.93 1014 10 16 0.00 0.00
10:03 am 10:03 Mostly Cloudy 80 26.7 70 21.1 71 71 WNW 5 7 29.94 1014 10 16 0.00 0.00
10:52 am 10:52 Partly Cloudy 83 28.3 70 21.1 65 65 N 6 9 29.93 1014 10 16 0.00 0.00
11:52 am 11:52 Partly Cloudy 84 28.9 70 21.1 63 63 WNW 8 13 29.94 1014 10 16 0.00 0.00
12:52 pm 12:52 Partly Cloudy 85 29.4 70 21.1 61 61 NNW 5 7 29.93 1014 10 16 0.00 0.00
1:52 pm 13:52 Mostly Cloudy 86 30 68 20 55 55 NNE 7 11 29.93 1014 10 16 0.00 0.00
2:52 pm 14:52 Partly Cloudy 88 31.1 69 20.6 54 54 E 5 7 29.93 1014 10 16 0.00 0.00
3:52 pm 15:52 Partly Cloudy 88 31.1 67 19.4 50 50 E 5 7 29.92 1013 10 16 0.00 0.00
4:52 pm 16:52 Mostly Sunny 88 31.1 67 19.4 50 50 SSE 5 7 29.91 1013 10 16 0.00 0.00
5:52 pm 17:52 Mostly Sunny 87 30.6 68 20 53 53 S 7 11 29.91 1013 10 16 0.00 0.00
6:52 pm 18:52 Mostly Sunny 83 28.3 69 20.6 63 63 S 13 20 29.91 1013 10 16 0.00 0.00
7:52 pm 19:52 Mostly Cloudy 86 30 65 18.3 49 49 SSW 9 15 29.93 1014 10 16 0.00 0.00
8:52 pm 20:52 Partly Cloudy 81 27.2 70 21.1 69 69 SSW 6 9 29.93 1014 10 16 0.00 0.00
9:52 pm 21:52 Partly Cloudy 80 26.7 70 21.1 71 71 S 8 13 29.96 1015 10 16 0.00 0.00
10:52 pm 22:52 Mostly Cloudy 79 26 72 22 79 79 S 6 9 29.98 1015 10 16 0.00 0.00
11:52 pm 23:52 Clear 77 25 71 21.7 82 82 S 5 7 29.97 1015 10 16 0.00 0.00

Powered by AerisWeather